Lincoln, NE

12:16 AM CDT on March 27, 2017 (GMT -0500)
Lincoln Municipal

Weather History for KLNK - January, 2014

Change the Weather History Date:

Saturday, January 25, 2014

  Actual Average Record
Temperature  
Mean Temperature 41 °F 25 °F  
Max Temperature 49 °F 36 °F 69 °F (1944)
Min Temperature 33 °F 14 °F -21 °F (1905)
Degree Days  
Heating Degree Days 24 40  
Month to date heating degree days 1042 1016  
Since 1 July heating degree days 3660 3461  
Cooling Degree Days 0 0  
Month to date cooling degree days 0 0  
Year to date cooling degree days 0 0  
Moisture  
Dew Point 26 °F    
Average Humidity 60    
Maximum Humidity 82    
Minimum Humidity 38    
Precipitation  
Precipitation 0.01 in 0.03 in 0.48 in (1941)
Month to date precipitation 0.21 0.50  
Year to date precipitation 0.21 0.50  
Snow  
Snow 0.00 in 0.20 in - ()
Month to date snowfall 3.3 4.2  
Since 1 July snowfall 9.2 12.9  
Snow Depth 0.00 in    
Sea Level Pressure  
Sea Level Pressure 29.93 in    
Wind  
Wind Speed 14 mph (NW)    
Max Wind Speed 26 mph    
Max Gust Speed 32 mph    
Visibility 10 miles    
Events Rain    
T = Trace of Precipitation, MM = Missing Value Source: NWS Daily Summary

Daily Weather History Graph

Daily Weather History Graph

Search for Another Location

Airport or City:

Trip Planner

Search our weather history database for the weather conditions in past years. The results will help you decide how hot, cold, wet, or windy it might be!

Date:

Astronomy

Jan. 25, 2014 Rise Set
Actual Time 7:43 AM CST 5:35 PM CST
Civil Twilight 7:13 AM CST 6:05 PM CST
Nautical Twilight 6:40 AM CST 6:38 PM CST
Astronomical Twilight 6:08 AM CST 7:11 PM CST
Moon 2:16 AM CST (1/25) 12:37 PM CST (1/25)
Length of Visible Light 10h 51m
Length of Day
9h 52m
Waning Crescent, 34% of the Moon is Illuminated
Jan 25
Waning Crescent
Jan 30
New
Feb 6
First Quarter
Feb 14
Full
Feb 22
Last Quarter

Hourly Weather History & Observations

Time (CST) Temp. Windchill Dew Point Humidity Pressure Visibility Wind Dir Wind Speed Gust Speed Precip Events Conditions
12:54 AM 46.9 °F - 32.0 °F 56% 29.85 in 10.0 mi NNW 16.1 mph - N/A   Overcast
1:54 AM 44.1 °F 37.4 °F 32.0 °F 63% 29.86 in 10.0 mi NW 13.8 mph - N/A   Overcast
2:54 AM 42.1 °F 35.7 °F 30.9 °F 65% 29.89 in 10.0 mi NW 11.5 mph - N/A   Partly Cloudy
3:54 AM 39.9 °F 34.5 °F 30.0 °F 68% 29.90 in 10.0 mi NW 8.1 mph - N/A   Scattered Clouds
4:54 AM 37.9 °F 34.4 °F 30.0 °F 73% 29.90 in 10.0 mi West 4.6 mph - N/A   Overcast
5:54 AM 41.0 °F 34.3 °F 32.0 °F 70% 29.91 in 10.0 mi WNW 11.5 mph - 0.00 in Rain Light Rain
6:54 AM 41.0 °F 33.1 °F 35.1 °F 79% 29.93 in 10.0 mi NW 15.0 mph 21.9 mph 0.01 in   Overcast
7:12 AM 41.0 °F 31.6 °F 35.1 °F 79% 29.93 in 10.0 mi NNW 20.7 mph - N/A   Overcast
7:54 AM 37.9 °F 27.6 °F 32.0 °F 79% 29.99 in 10.0 mi North 20.7 mph 29.9 mph N/A   Overcast
8:05 AM 37.9 °F 28.5 °F 32.0 °F 79% 29.98 in 10.0 mi North 17.3 mph - N/A   Overcast
8:21 AM 36.0 °F 23.9 °F 30.9 °F 82% 30.00 in 9.0 mi NNE 25.3 mph 32.2 mph N/A   Overcast
8:29 AM 33.1 °F 21.9 °F 28.9 °F 85% 30.01 in 9.0 mi NNE 18.4 mph 32.2 mph N/A   Overcast
8:34 AM 33.1 °F 23.0 °F 28.9 °F 85% 30.02 in 10.0 mi North 15.0 mph - N/A   Overcast
8:49 AM 33.8 °F 25.3 °F 28.4 °F 81% 30.02 in 10.0 mi North 11.5 mph - N/A   Overcast
8:54 AM 33.1 °F 23.9 °F 28.9 °F 85% 30.05 in 10.0 mi North 12.7 mph - N/A   Overcast
9:03 AM 33.1 °F 23.4 °F 28.9 °F 85% 30.03 in 10.0 mi North 13.8 mph - N/A   Overcast
9:54 AM 34.0 °F 22.4 °F 24.1 °F 67% 30.07 in 10.0 mi North 20.7 mph 25.3 mph N/A   Overcast
10:54 AM 35.1 °F 23.0 °F 12.0 °F 39% 30.08 in 10.0 mi North 24.2 mph - N/A   Mostly Cloudy
11:54 AM 37.9 °F 28.5 °F 16.0 °F 41% 30.10 in 10.0 mi NNW 17.3 mph - N/A   Scattered Clouds
12:54 PM 37.9 °F 29.2 °F 17.1 °F 43% 30.07 in 10.0 mi NNW 15.0 mph - N/A   Overcast
1:54 PM 39.0 °F 31.0 °F 19.0 °F 45% 30.04 in 10.0 mi NNW 13.8 mph - N/A   Overcast
2:54 PM 39.0 °F 32.8 °F 21.0 °F 49% 30.01 in 10.0 mi NNW 9.2 mph - N/A   Mostly Cloudy
3:54 PM 39.9 °F 32.5 °F 21.9 °F 49% 29.99 in 10.0 mi NW 12.7 mph - N/A   Scattered Clouds
4:54 PM 39.0 °F 36.8 °F 21.9 °F 50% 29.96 in 10.0 mi WSW 3.5 mph - N/A   Clear
5:54 PM 33.1 °F 28.7 °F 21.0 °F 61% 29.91 in 10.0 mi South 4.6 mph - N/A   Scattered Clouds
6:54 PM 36.0 °F 29.6 °F 23.0 °F 59% 29.88 in 10.0 mi South 8.1 mph - N/A   Overcast
7:54 PM 35.1 °F 25.9 °F 23.0 °F 61% 29.81 in 10.0 mi South 13.8 mph - N/A   Clear
8:54 PM 35.1 °F 25.9 °F 24.1 °F 64% 29.74 in 10.0 mi SSW 13.8 mph - N/A   Clear
9:54 PM 37.0 °F 26.7 °F 26.1 °F 65% 29.68 in 10.0 mi SSW 19.6 mph - N/A   Clear
10:54 PM 39.0 °F 29.9 °F 27.0 °F 62% 29.65 in 10.0 mi SW 17.3 mph - N/A   Clear
11:54 PM 44.1 °F 36.5 °F 28.9 °F 55% 29.61 in 10.0 mi WSW 17.3 mph - N/A   Clear